Weather in Selo Dormidontovka

Russia / Khabarovsk Krai     47°42′39″N   134°54′58″E
temp.,
°C
wind,
m/s
gust,
m/s
humid.,
%
clouds,
%
prec.,
mm/h
press.,
hPa
HPBL,
m
18 may, tue
tue1801:00+13s48515 0.0 1002103
04:00+11s35605 0.0 100365
07:00+14s28625 0.0 1003230
10:00+23ssw593988 0.0 1003825
13:00+26sw7113597 0.0 10021880
16:00+27sw711355 0.0 10012670
19:00+23ssw713415 0.0 1001390
22:00+20ssw513415 0.0 1001280
19 may, wed
wed1901:00+20s616420 0.0 1001458
04:00+16s410520 0.0 1000185
07:00+16nw126119 0.0 1001105
10:00+21wsw684698 0.3 10031024
13:00+24w574338 0.0 10031564
16:00+25w56449 0.0 10031801
19:00+22nw2459100 0.0 1003123
22:00+17ne1166100 0.0 100511
20 may, thu
thu2001:00+16sse347883 0.1 100556
04:00+14se368898 1.5 1005101
07:00+16s4983100 0.9 1004270
10:00+24sw51052100 2.6 1004998
13:00+24sw5750100 0.0 1003770
16:00+27sw5104562 0.0 10031500
19:00+25wsw1260100 0.0 100368
22:00+19wsw22755 0.1 100414
21 may, fri
fri2101:00+17s227862 0.0 100418
04:00+16sw22850 0.1 100514
07:00+17sw37810 0.0 1006249
10:00+22w22645 0.0 1006609
13:00+26nnw32504 0.0 10051110
16:00+27nnw433799 0.0 10041196
19:00+23nne4851100 0.0 1003218
22:00+18nne3551100 0.0 100463
22 may, sat
sat2201:00+16nne41157100 0.0 1005231
04:00+13ne51243100 0.0 1005307
07:00+13ne5135166 0.0 1007472
10:00+17ne684778 0.0 1007648
13:00+22nne564468 0.0 1006903
16:00+23nne564219 0.0 10051062
19:00+20nne47540 0.0 1005299
22:00+15ne36615 0.0 100678